Location: *
(45.9500°S, 157.1500°W)
Time: 02:03:24
(UTC+00:00)

Daily predictions for brighter satellites

Satellite Brightness Start Highest point End
(mag) Time Altitude Azimuth Time Altitude Azimuth Time Altitude Azimuth
Cosmos 1727 Rocket 4.1 03:18:28 10° N 03:24:36 59° E 03:30:45 10° SSE
Cosmos 1782 3.9 03:21:31 10° SSE 03:24:50 24° ESE 03:28:05 10° NE
CZ-2C R/B 3.6 03:21:07 10° N 03:26:39 58° W 03:32:09 10° SSW
SeaSat 1 3.0 03:22:18 10° SSE 03:27:12 59° WSW 03:32:04 10° NW
SJ-12 4.0 03:23:27 10° SSE 03:27:39 62° ENE 03:31:46 10° N
BREEZE-M DEB (TANK) 3.0 03:20:52 10° WNW 03:27:49 81° SSW 03:30:34 10° ESE
USA 305 3.0 03:25:18 10° SW 03:29:29 57° SSE 03:33:39 10° ENE
Cosmos 1953 Rocket 3.9 03:25:36 10° NNW 03:30:01 74° W 03:34:28 10° S
Cosmos 192 4.4 03:26:14 10° N 03:31:09 69° ENE 03:36:09 10° SSE
Cosmos 1933 3.9 03:29:30 10° S 03:33:22 38° ESE 03:37:10 10° NE
Lacrosse 5 rocket 3.1 03:31:04 10° SW 03:33:52 17° S 03:36:36 10° SE
Cosmos 1939 Rocket 4.0 03:31:58 10° SE 03:35:07 22° E 03:38:13 10° NNE
Cosmos 1802 Rocket 4.5 03:30:34 10° S 03:36:40 40° ESE 03:42:42 10° NE
Cosmos 1459 Rocket 4.2 03:32:11 10° S 03:38:13 50° ESE 03:44:17 10° NNE
ATLAS 2AS CENTAUR R/B 3.1 03:32:51 10° SW 03:39:56 79° NW 03:47:27 10° NNE
Meteor 2-3 Rocket 3.9 03:35:20 10° NNE 03:40:46 52° E 03:46:19 10° SSE
Cosmos 1076 Rocket 3.8 03:37:40 10° NNE 03:41:55 50° E 03:46:11 10° SSE
YAOGAN 6 4.1 03:40:31 10° S 03:43:51 35° WSW 03:47:05 10° NW
Cosmos 968 Rocket 3.6 03:41:18 10° SSW 03:46:40 84° WNW 03:51:56 10° NNE
Cosmos 2100 Rocket 4.0 03:44:22 10° S 03:50:43 67° E 03:56:54 10° NNE
Envisat 4.0 03:47:12 10° S 03:52:10 49° WSW 03:57:04 10° NW
Cosmos 724 4.4 03:48:34 10° NNW 03:54:43 84° ENE 04:00:59 10° SE
CZ-4B R/B 4.1 03:51:04 10° SSE 03:55:35 71° ENE 03:59:54 10° N
Cosmos 2221 3.3 03:51:51 10° SSW 03:56:15 59° W 04:00:35 10° N
CZ-2C R/B 3.1 03:51:29 10° S 03:56:20 78° WSW 04:01:18 10° NNW
Cosmos 1812 3.2 03:53:51 10° S 03:57:32 38° ESE 04:01:09 10° NE
Cosmos 1980 Rocket 2.2 03:52:52 10° SSW 03:58:31 63° ESE 04:04:04 10° NE
SJ 16-02 2.6 03:56:28 10° S 03:59:49 20° ESE 04:02:31 13° E
Cosmos 1842 Rocket 3.9 03:55:28 10° SSW 03:59:58 71° W 04:04:22 10° N
CZ-4B R/B 4.1 03:58:46 15° ESE 04:00:34 21° E 04:03:32 10° NE
H-2A R/B 4.3 03:57:24 10° S 04:01:01 37° WSW 04:04:38 10° NW
Meteor 1-26 Rocket 4.3 03:58:10 10° S 04:04:18 73° ESE 04:10:17 10° NNE
DMSP B5D2-2 4.2 04:00:11 10° N 04:05:27 80° WNW 04:10:47 10° SSW
Aureole 1 Rocket 4.0 03:58:57 10° SSW 04:06:18 71° ESE 04:11:55 10° NNE
Cosmos 2322 Rocket 3.5 04:03:22 10° S 04:07:34 20° SE 04:09:31 17° ESE
CZ-4C R/B 3.8 04:08:45 10° NE 04:11:31 26° ESE 04:14:22 10° S
USA 306 2.9 04:07:23 10° WSW 04:11:38 84° NW 04:15:51 10° NE
Lacrosse 4 Rocket 4.1 04:09:52 10° WSW 04:11:39 12° SW 04:13:26 10° S
Cosmos 2082 Rocket 2.2 04:06:34 10° NNW 04:12:09 67° ENE 04:17:43 10° SSE
H-2A R/B 4.3 04:15:23 11° SSE 04:15:23 11° SSE 04:15:41 10° SSE
Cosmos 2369 3.7 04:08:09 10° SSW 04:13:56 88° WNW 04:19:38 10° NNE
USA 215 3.3 04:07:48 10° ENE 04:14:21 69° SSE 04:20:56 10° SW
RESURS DK-1 2.3 04:11:14 10° SSW 04:15:28 71° ESE 04:19:37 10° NE
Cosmos 1697 Rocket 3.7 04:10:41 10° SW 04:16:12 52° WNW 04:21:40 10° N
USA 307 2.8 04:12:38 10° WSW 04:16:54 87° NNW 04:20:59 11° NE
Cosmos 2123 Rocket 4.1 04:11:37 10° N 04:17:52 61° E 04:24:10 10° SSE
Cosmos 2333 Rocket 4.1 04:15:42 10° SSE 04:17:52 12° SSE 04:17:58 12° SE
H-2A R/B 2.5 04:14:50 10° SSE 04:19:27 36° E 04:24:00 10° NNE
Cosmos 2061 Rocket 4.0 04:13:34 10° S 04:19:58 60° ESE 04:26:11 10° NNE
Cosmos 1725 Rocket 4.0 04:14:20 10° S 04:20:37 63° E 04:26:51 10° NNE
Lacrosse 5 2.8 04:21:00 10° SW 04:25:36 31° SSE 04:27:33 24° ESE
Cosmos 2219 Rocket 4.2 04:26:15 10° SSE 04:27:05 11° SSE 04:27:05 11° SSE
Cosmos 1766 Rocket 4.5 04:24:08 10° NE 04:27:38 26° E 04:27:38 26° E
FengYun 1-2 T 4.2 04:22:43 10° SSE 04:28:20 70° ENE 04:33:51 10° N
Cosmos 1862 3.5 04:25:21 10° NNE 04:29:11 47° E 04:31:35 21° SSE
ADEOS 3.5 04:24:19 10° SSE 04:29:37 67° ENE 04:34:51 10° N
NOAA 12 4.0 04:24:39 10° SSE 04:30:04 82° ENE 04:35:22 10° NNW
ERBS 2.5 04:27:50 10° SW 04:30:52 40° SSE 04:31:00 40° SE
CZ-2C R/B 3.4 04:30:31 10° NW 04:32:48 15° N 04:34:45 11° NE
Cosmos 967 Rocket 4.4 04:28:09 10° NNW 04:34:20 69° ENE 04:38:43 21° SE
Cosmos 2084 3.9 04:33:31 10° NNW 04:38:14 55° ENE 04:40:09 33° ESE
Meteor 1-31 Rocket 4.2 04:35:01 10° S 04:38:47 40° WSW 04:42:29 10° NW
BREEZE M DEB (TANK) 1.7 04:38:05 10° WNW 04:40:08 74° NNE 04:40:10 74° NE
Cosmos 2151 3.9 04:36:33 10° NNW 04:40:47 51° WSW 04:45:04 10° S
USA 308 3.5 04:43:36 10° WSW 04:47:44 54° NW 04:50:43 18° NNE
SL-16 R/B 2.4 04:43:48 10° SSW 04:49:20 46° ESE 04:51:25 32° ENE
AQUARIUS 4.1 04:47:12 26° SSE 04:49:40 61° E 04:54:08 10° N
NOAA 6 4.1 04:48:46 24° SSE 04:51:44 54° E 04:56:45 10° N
COSMOS 2406 4.2 04:48:42 10° NW 04:54:08 45° WSW 04:59:25 11° SSE
Landsat 5 4.4 04:50:18 10° N 04:54:40 54° W 04:58:58 10° SSW
Cosmos 1777 Rocket 3.9 04:53:51 10° SSW 04:59:06 62° ESE 05:02:00 26° NE
IRIDIUM 106 4.3 04:56:24 10° NNE 05:01:32 57° E 05:05:18 19° SSE
Cosmos 1833 Rocket 4.5 04:57:34 10° WNW 05:02:20 27° SW 05:07:09 10° S
Cosmos 1354 Rocket 4.1 04:59:56 10° SSW 05:05:15 77° WNW 05:10:30 10° NNE
Cosmos 2233 Rocket 4.0 05:02:47 10° S 05:09:10 87° W 05:15:30 10° N
SMAP 3.2 05:06:12 18° S 05:09:46 75° WSW 05:14:27 10° NNW
Cosmos 2360 Rocket 3.2 05:05:45 10° SSW 05:09:28 29° SSE 05:09:28 29° SSE
Cosmos 1447 Rocket 4.3 05:05:12 10° N 05:11:19 70° E 05:17:30 10° SSE
Cosmos 2278 4.2 05:06:01 10° SSW 05:11:39 60° WNW 05:17:12 10° N
Lacrosse 5 rocket 2.9 05:10:21 10° SW 05:12:32 24° SSW 05:12:32 24° SSW
Meteor 1-10 Rocket 4.1 05:09:35 10° S 05:15:22 90° NNW 05:20:59 10° N
CZ-4B DEB 4.3 05:17:36 55° ENE 05:17:36 55° ENE 05:22:41 10° N
Cosmos 1151 Rocket 3.4 05:13:28 10° SSW 05:17:55 66° W 05:22:15 10° N
ATLAS 5 CENTAUR R/B 4.5 05:16:05 10° NNE 05:18:05 16° NE 05:18:05 16° NE
Meteor 1-27 Rocket 3.6 05:16:41 10° S 05:22:17 66° ESE 05:22:24 66° E
SL-8 R/B 3.9 05:20:42 10° NW 05:25:02 60° N 05:25:02 60° N
USA 281 3.2 05:21:17 25° SSE 05:25:28 89° WSW 05:32:06 10° NNW
CZ-2D R/B 4.3 05:30:12 43° WSW 05:30:30 44° WSW 05:34:10 10° NW
ARGOS 3.0 05:30:54 65° SSE 05:31:45 86° ENE 05:37:10 10° NNW
CZ-4B R/B 4.4 05:34:48 29° SW 05:35:38 32° WSW 05:39:07 10° NW
SJ 16-02 2.2 05:34:21 10° SSW 05:38:39 48° WNW 05:39:38 40° NW
DELTA 2 R/B (1) 4.4 05:46:59 10° WNW 05:51:36 42° NNW 05:51:36 42° NNW
Cosmos 2322 Rocket 2.5 05:46:37 10° SSW 05:51:23 62° SSW 05:51:23 62° SSW
Cosmos 2082 Rocket 4.1 05:52:13 10° W 05:56:46 24° SW 05:59:35 17° S
USA 215 4.2 05:53:47 23° N 05:57:34 43° NW 06:03:50 10° WSW
H-2A R/B 3.6 05:55:24 15° SSW 05:58:47 30° WSW 06:03:03 10° NW
Cosmos 2333 Rocket 4.0 05:58:06 10° SSW 06:00:00 21° S 06:00:00 21° S
Lacrosse 5 3.3 06:03:57 10° SW 06:06:47 33° SW 06:06:47 33° SW
Cosmos 2219 Rocket 4.4 06:07:43 10° SSW 06:08:48 15° S 06:08:48 15° S
SL-16 R/B 3.8 06:28:17 10° SW 06:33:13 31° WNW 06:33:22 31° WNW
Cosmos 2360 Rocket 4.4 06:49:39 10° SW 06:51:15 19° SW 06:51:15 19° SW
